User: anonymous   Login
Location: Unspecified
(0.0000°N, 0.0000°E)
Time: 07:14:52
(UTC+01:00)
Language:

Ariane H10 - Orbit

View from above orbital plane
View from above orbital plane
View from above satellite
View from above satellite

Ground track
Ground track

The orbit data is extracted from the following two-line orbital elements,

1 21727U 91067B   14301.71250443  .00000246  00000-0  80433-3 0  3130
2 21727 004.6022 006.2626 7186478 088.5777 018.0310 02.31410363155625
Epoch (UTC): 28 October 2014 17:06:00
Eccentricity: 0.7186478
inclination: 4.6022°
perigee height: 415 km
apogee height: 35117 km
right ascension of ascending node: 6.2626°
argument of perigee: 88.5777°
revolutions per day: 2.31410363
mean anomaly at epoch: 18.0310°
orbit number at epoch: 15562

The dashed part of the orbit path shows where the satellite is in the earth's shadow,  

DLR